Powrót do katalogu

CZ-2D R/B

AktywnyPO
NORAD 39154·ROCKET BODY·🇨🇳 China

Wystrzelony Apr 26, 2013 z Jiuquan Satellite Launch Center

Loading…

Następne Przeloty (najbliższe 24 godziny)

TLE

ŚwieżeSource: Space-Track

Epoka: Sep 14, 2026, 10:00 UTC

1 39154U 13018E   26257.41679110  .00000597  00000-0  83058-4 0  9995
2 39154  98.4439 235.0154 0018072 122.7982 237.4973 14.81710766721321

Śledź CZ-2D R/B w czasie rzeczywistym z AllMySat

Download on the App Store